When you browse on this site, cookies collect data to enhance your experience and personalize the content and advertising you see.
Visit our Privacy Policy to learn more. By continuing to use the site, you agree to this use of cookies and data.
  • En España
  • Lista de países
  • Para 7 días
  • Temperatura del agua
  • Mapa Satelital
  • El tiempo en el mapa
  • Informadores
  • user-avatar
    Iniciar sesión

    Tiempo cada hora Patna

    Hoy, 18 Julio, Jueves

    Tiempo Temperatura Precipitaciones Viento Presión Humedad
    00:00 +36°C° 0 mm 2 mps 745 mmHg 56%
    01:00 +36°C° 0 mm 2 mps 745 mmHg 57%
    02:00 +34°C° 0 mm 1 mps 744 mmHg 59%
    03:00 +34°C° 0 mm 1 mps 744 mmHg 60%
    04:00 +34°C° 0 mm 1 mps 744 mmHg 61%
    05:00 +34°C° 0 mm 1 mps 744 mmHg 62%
    06:00 +31°C° 0 mm 0 mps 745 mmHg 65%
    07:00 +33°C° 0 mm 0 mps 745 mmHg 60%
    08:00 +36°C° 0 mm 1 mps 745 mmHg 55%
    09:00 +37°C° 0 mm 1 mps 745 mmHg 49%
    10:00 +39°C° 0 mm 1 mps 745 mmHg 45%
    11:00 +40°C° 0 mm 2 mps 745 mmHg 41%
    12:00 +42°C° 0 mm 3 mps 745 mmHg 38%
    13:00 +42°C° 0 mm 3 mps 744 mmHg 38%
    14:00 +42°C° 0 mm 3 mps 744 mmHg 38%
    15:00 +40°C° 0 mm 3 mps 743 mmHg 38%
    16:00 +40°C° 0 mm 3 mps 743 mmHg 38%
    17:00 +40°C° 0 mm 2 mps 743 mmHg 38%
    18:00 +40°C° 0 mm 2 mps 742 mmHg 38%
    19:00 +40°C° 0 mm 2 mps 743 mmHg 41%
    20:00 +39°C° 0 mm 1 mps 743 mmHg 44%
    21:00 +37°C° 0 mm 1 mps 743 mmHg 48%
    22:00 +37°C° 0 mm 1 mps 743 mmHg 49%
    23:00 +36°C° 0 mm 1 mps 743 mmHg 50%

    Mañana, 19 Julio, Viernes

    Tiempo Temperatura Precipitaciones Viento Presión Humedad
    00:00 +36°C° 0 mm 1 mps 744 mmHg 52%
    01:00 +35°C° 0 mm 1 mps 743 mmHg 53%
    02:00 +35°C° 0 mm 1 mps 743 mmHg 54%
    03:00 +36°C° 0 mm 2 mps 742 mmHg 55%
    04:00 +36°C° 0 mm 2 mps 743 mmHg 56%
    05:00 +35°C° 0 mm 2 mps 743 mmHg 58%
    06:00 +35°C° 0 mm 2 mps 743 mmHg 59%
    07:00 +35°C° 0 mm 1 mps 744 mmHg 56%
    08:00 +36°C° 0 mm 1 mps 744 mmHg 53%
    09:00 +37°C° 0 mm 1 mps 745 mmHg 50%
    10:00 +37°C° 0 mm 1 mps 745 mmHg 47%
    11:00 +39°C° 0 mm 1 mps 745 mmHg 44%
    12:00 +40°C° 0 mm 1 mps 745 mmHg 41%
    13:00 +41°C° 0 mm 1 mps 744 mmHg 39%
    14:00 +41°C° 0 mm 1 mps 744 mmHg 38%
    15:00 +41°C° 0 mm 1 mps 743 mmHg 36%
    16:00 +41°C° 0 mm 1 mps 743 mmHg 36%
    17:00 +41°C° 0 mm 1 mps 743 mmHg 37%
    18:00 +41°C° 0 mm 1 mps 742 mmHg 37%
    19:00 +40°C° 0 mm 1 mps 743 mmHg 40%
    20:00 +40°C° 0 mm 1 mps 743 mmHg 43%
    21:00 +39°C° 0 mm 1 mps 743 mmHg 46%
    22:00 +37°C° 0 mm 1 mps 743 mmHg 47%
    23:00 +38°C° 0 mm 2 mps 743 mmHg 48%

    Pasado mañana, 20 Julio, Sábado

    Tiempo Temperatura Precipitaciones Viento Presión Humedad
    00:00 +38°C° 0 mm 2 mps 743 mmHg 50%
    01:00 +37°C° 0 mm 2 mps 743 mmHg 52%
    02:00 +37°C° 0 mm 2 mps 743 mmHg 54%
    03:00 +36°C° 0 mm 2 mps 743 mmHg 56%
    04:00 +36°C° 0 mm 2 mps 743 mmHg 58%
    05:00 +35°C° 0 mm 2 mps 743 mmHg 59%
    06:00 +35°C° 0 mm 2 mps 744 mmHg 60%
    07:00 +36°C° 0 mm 2 mps 744 mmHg 56%
    08:00 +37°C° 0 mm 2 mps 744 mmHg 51%
    09:00 +39°C° 0 mm 2 mps 745 mmHg 47%
    10:00 +40°C° 0 mm 2 mps 745 mmHg 44%
    11:00 +41°C° 0 mm 2 mps 745 mmHg 40%
    12:00 +42°C° 0 mm 2 mps 745 mmHg 37%
    13:00 +42°C° 0 mm 2 mps 744 mmHg 37%
    14:00 +42°C° 0 mm 1 mps 743 mmHg 37%
    15:00 +42°C° 0 mm 1 mps 743 mmHg 36%
    16:00 +41°C° 0 mm 1 mps 742 mmHg 38%
    17:00 +41°C° 0 mm 2 mps 742 mmHg 40%
    18:00 +40°C° 0 mm 2 mps 742 mmHg 42%
    19:00 +40°C° 0 mm 2 mps 742 mmHg 43%
    20:00 +39°C° 0 mm 2 mps 742 mmHg 45%
    21:00 +39°C° 0 mm 2 mps 743 mmHg 47%
    22:00 +39°C° 0 mm 2 mps 743 mmHg 49%
    23:00 +38°C° 0 mm 2 mps 743 mmHg 50%

    21 Julio, Domingo

    Tiempo Temperatura Precipitaciones Viento Presión Humedad
    00:00 +38°C° 0 mm 2 mps 743 mmHg 52%
    01:00 +37°C° 0 mm 2 mps 743 mmHg 54%
    02:00 +37°C° 0 mm 2 mps 743 mmHg 55%
    03:00 +36°C° 0 mm 2 mps 742 mmHg 57%
    04:00 +36°C° 0 mm 2 mps 742 mmHg 57%
    05:00 +36°C° 0 mm 2 mps 743 mmHg 58%
    06:00 +35°C° 0 mm 2 mps 743 mmHg 59%
    07:00 +36°C° 0 mm 3 mps 743 mmHg 55%
    08:00 +38°C° 0 mm 3 mps 744 mmHg 52%
    09:00 +39°C° 0 mm 3 mps 744 mmHg 48%
    10:00 +40°C° 0 mm 3 mps 744 mmHg 45%
    11:00 +42°C° 0 mm 3 mps 744 mmHg 41%
    12:00 +43°C° 0 mm 3 mps 744 mmHg 38%
    13:00 +42°C° 0 mm 2 mps 743 mmHg 37%
    14:00 +42°C° 0 mm 2 mps 742 mmHg 35%
    15:00 +43°C° 0 mm 1 mps 742 mmHg 34%
    16:00 +42°C° 0 mm 2 mps 742 mmHg 37%
    17:00 +41°C° 0 mm 2 mps 741 mmHg 40%
    18:00 +40°C° 0 mm 3 mps 741 mmHg 43%
    19:00 +40°C° 0 mm 4 mps 741 mmHg 48%
    20:00 +38°C° 0 mm 4 mps 742 mmHg 52%
    21:00 +37°C° 0 mm 4 mps 742 mmHg 56%
    22:00 +37°C° 0 mm 4 mps 742 mmHg 59%
    23:00 +36°C° 0 mm 4 mps 742 mmHg 61%

    22 Julio, Lunes

    Tiempo Temperatura Precipitaciones Viento Presión Humedad
    00:00 +36°C° 0 mm 4 mps 742 mmHg 64%
    01:00 +35°C° 0 mm 4 mps 742 mmHg 65%
    02:00 +35°C° 0 mm 4 mps 742 mmHg 66%
    03:00 +35°C° 0 mm 4 mps 741 mmHg 68%
    04:00 +34°C° 0.1 mm 4 mps 742 mmHg 69%
    05:00 +34°C° 0.1 mm 3 mps 742 mmHg 70%
    06:00 +33°C° 0.1 mm 3 mps 742 mmHg 71%
    07:00 +34°C° 0.3 mm 3 mps 742 mmHg 68%
    08:00 +35°C° 0.3 mm 3 mps 743 mmHg 66%
    09:00 +36°C° 0.3 mm 3 mps 743 mmHg 64%
    10:00 +37°C° 0 mm 4 mps 743 mmHg 59%
    11:00 +38°C° 0 mm 4 mps 743 mmHg 54%
    12:00 +41°C° 0 mm 4 mps 743 mmHg 50%
    13:00 +40°C° 0.4 mm 5 mps 742 mmHg 53%
    14:00 +39°C° 0.4 mm 5 mps 742 mmHg 56%
    15:00 +39°C° 0.4 mm 6 mps 741 mmHg 58%
    16:00 +38°C° 0.5 mm 6 mps 741 mmHg 61%
    17:00 +36°C° 0.5 mm 6 mps 741 mmHg 64%
    18:00 +35°C° 0.5 mm 6 mps 741 mmHg 67%
    19:00 +35°C° 0.1 mm 6 mps 742 mmHg 68%
    20:00 +34°C° 0.1 mm 6 mps 742 mmHg 69%
    21:00 +34°C° 0.1 mm 6 mps 743 mmHg 69%
    22:00 +33°C° 0.5 mm 4 mps 743 mmHg 71%
    23:00 +33°C° 0.5 mm 3 mps 743 mmHg 72%

    23 Julio, Martes

    Tiempo Temperatura Precipitaciones Viento Presión Humedad
    00:00 +32°C° 0.5 mm 1 mps 743 mmHg 73%
    01:00 +31°C° 0.1 mm 2 mps 743 mmHg 74%
    02:00 +31°C° 0.1 mm 3 mps 742 mmHg 76%
    03:00 +31°C° 0.1 mm 3 mps 742 mmHg 77%
    04:00 +30°C° 0 mm 4 mps 742 mmHg 79%
    05:00 +30°C° 0 mm 4 mps 742 mmHg 81%
    06:00 +30°C° 0 mm 4 mps 742 mmHg 83%
    07:00 +30°C° 0 mm 4 mps 743 mmHg 81%
    08:00 +32°C° 0 mm 4 mps 743 mmHg 78%
    09:00 +33°C° 0 mm 4 mps 744 mmHg 76%
    10:00 +34°C° 0 mm 4 mps 744 mmHg 71%
    11:00 +35°C° 0 mm 3 mps 744 mmHg 66%
    12:00 +36°C° 0 mm 3 mps 744 mmHg 61%
    13:00 +36°C° 1.2 mm 3 mps 743 mmHg 60%
    14:00 +37°C° 1.2 mm 3 mps 743 mmHg 59%
    15:00 +37°C° 1.2 mm 3 mps 742 mmHg 58%
    16:00 +37°C° 0.4 mm 3 mps 742 mmHg 59%
    17:00 +37°C° 0.4 mm 3 mps 741 mmHg 60%
    18:00 +37°C° 0.4 mm 4 mps 741 mmHg 61%
    19:00 +36°C° 1.1 mm 3 mps 741 mmHg 64%
    20:00 +35°C° 1.1 mm 3 mps 742 mmHg 66%
    21:00 +35°C° 1.1 mm 3 mps 742 mmHg 68%
    22:00 +34°C° 0.5 mm 3 mps 742 mmHg 70%
    23:00 +34°C° 0.5 mm 2 mps 743 mmHg 72%
    Mostrar más